www.pogodaiklimat.ru

Погода и климат >> Архив погоды >> Россия >> Адыгея >> Майкоп


ПОГОДА в Майкопе

АРХИВ ПОГОДЫ в Майкопе

Время (UTC), дата Ветер
(напр.,м/с)
 
Видим.   Явления Облачность Т
(С)
Тd
(С)
f
(%)
Тe
(С)
Тes
(С)
Комфортность P
(гПа)
Po
(гПа)
Тmin
(С)
Tmax
(С)
R
(мм)
R24
(мм)
S
(см)
09 13.09 СВ 5-11
{11}
20 км ясно +26.4 +3.9 23 +25 +32 комфорт 1019.9 994.9
12 13.09 СВ 5
{12}
20 км ясно +27.7 +0.8 17 +26 +29 жарко 1018.5 993.6
15 13.09 СВ 4
{12}
20 км ясно +24.6 +1.9 23 +24 +24 комфорт 1018.8 993.6 +28.1
18 13.09 В 2 20 км ясно +17.8 +3.2 38 +18 +18 тепло 1020.2 994.4
21 13.09 В 2 20 км ясно +14.0 +4.7 53 +14 +14 по сезону 1020.0 993.9
00 14.09 ЮВ 1 20 км ясно +10.0 +6.9 81 +10 +10 по сезону 1020.1 993.7
03 14.09 ЮВ 1 20 км ясно +9.7 +7.0 83 +9 +9 холодно 1020.4 994.0 +8.9
06 14.09 ЮЗ 1 20 км ясно +17.1 +7.7 54 +18 +24 тепло 1020.0 994.2
09 14.09 З 2 20 км ясно +23.8 +6.9 34 +24 +36 комфорт 1018.6 993.4
12 14.09 З 3 20 км ясно +26.7 +7.2 29 +26 +32 жарко 1017.3 992.4
15 14.09 З 1 20 км ясно +24.9 +6.0 30 +25 +25 комфорт 1016.8 991.7 +26.7
18 14.09 ЮВ 1 20 км ясно +16.5 +9.5 63 +17 +17 тепло 1018.2 992.4
21 14.09 ЮВ 1 20 км ясно +15.3 +11.0 76 +16 +16 тепло 1018.6 992.7
00 15.09 Ю 1 20 км ясно +13.6 +10.4 81 +14 +14 тепло 1019.2 993.1
03 15.09 Ю 1 20 км ясно +12.3 +9.5 83 +12 +12 по сезону 1019.9 993.7 +11.1
06 15.09 Ю 2 20 км 6/0
[Ci sp]
+20.0 +8.5 47 +22 +26 комфорт 1019.9 994.4
09 15.09 СЗ 2 20 км 6/0
[Ci sp]
+25.9 +3.5 23 +25 +35 комфорт 1019.2 994.1
12 15.09 СЗ 3 20 км 3/0
[Ci sp]
+27.0 +1.8 20 +25 +31 комфорт 1018.5 993.5
15 15.09 З 1 20 км 4/1 1000 м
[Sc Ac As Ci sp]
+24.5 +5.8 30 +24 +24 комфорт 1019.2 994.1 +27.2
18 15.09 ЮВ 1 20 км 3/0
[Ac As]
+16.4 +9.2 62 +17 +17 тепло 1020.9 995.0
21 15.09 штиль 0 20 км ясно +12.1 +9.3 83 +12 +12 по сезону 1021.0 994.8
00 16.09 ЮВ 2 20 км ясно +12.6 +9.3 80 +12 +12 по сезону 1020.4 994.2
03 16.09 штиль 0 20 км ясно +11.3 +8.2 81 +11 +11 прохладно 1019.4 993.1 +9.9
06 16.09 ЮЗ 1 20 км ясно +18.5 +9.1 54 +20 +26 тепло 1017.9 992.3 +9.2
09 16.09 СВ 2 20 км ясно +25.4 +7.0 31 +25 +37 комфорт 1015.5 990.5
12 16.09 З 2 20 км ясно +27.3 +7.0 28 +27 +34 жарко 1013.2 988.4
15 16.09 З 1 20 км ясно +24.5 +7.5 34 +25 +25 комфорт 1013.3 988.3 +27.6
18 16.09 Ю 1 20 км ясно +18.3 +10.1 59 +20 +20 тепло 1014.3 988.8
21 16.09 Ю 1 20 км ясно +14.7 +9.9 73 +15 +15 по сезону 1014.9 989.1
00 17.09 ЮВ 1 20 км ясно +12.4 +10.5 88 +12 +12 по сезону 1014.8 988.7
03 17.09 Ю 1 20 км 8/4 1000 м
[Sc Ac trans Ci sp]
+14.4 +10.7 78 +15 +15 по сезону 1014.4 988.5 +12.2
06 17.09 Ю 1 20 км 9/5 1000 м
[Sc Ac trans Ci sp]
+17.8 +9.4 58 +19 +21 тепло 1014.1 988.5
09 17.09 Ю 2 20 км 3/0
[Ac trans Ci sp]
+23.7 +9.3 40 +25 +34 комфорт 1012.0 987.0
12 17.09 З 4 20 км 3/1 1500 м
[Cu hum Ci sp]
+25.4 +9.9 38 +26 +30 жарко 1010.9 986.1
15 17.09 З 3
{11}
20 км 1/0
[Ci sp]
+20.8 +5.5 37 +22 +22 комфорт 1012.1 986.9 +25.9
18 17.09 ЮЗ 2 20 км 8/0
[Ac trans Ci sp]
+18.1 +7.9 51 +19 +19 тепло 1013.6 988.1
21 17.09 Ю 1 20 км 8/0
[Ac trans Ci sp]
+16.4 +7.0 54 +17 +17 тепло 1013.6 987.9
00 18.09 ЮЗ 3 20 км 8/4 1000 м
[Sc Ac trans Ci sp]
+18.8 +7.0 46 +19 +19 тепло 1012.8 987.3
03 18.09 ЮВ 3 20 км 3/0
[Ac trans]
+12.4 +4.7 59 +11 +11 прохладно 1013.3 987.2 +12.4
06 18.09 ЮЗ 6-14
{14}
20 км 3/0
[Ac trans]
+23.3 +4.5 29 +23 +25 комфорт 1012.8 987.7
09 18.09 Ю 5-12
{15}
20 км 1/0
[Ac trans]
+27.6 +4.8 23 +26 +32 жарко 1012.1 987.3
12 18.09 Ю 5-12
{15}
н/о н/о +29.3 +5.0 21 +28 +31 жарко 1010.5 986.2
15 18.09 ЮЗ 3
{12}
20 км 1/0
[Ac trans]
+26.2 +3.6 23 +25 +25 комфорт 1010.8 986.0 +29.3
18 18.09 ЮЗ 4
{12}
20 км ясно +24.1 +3.8 27 +24 +24 комфорт 1011.9 986.9
21 18.09 ЮЗ 1
{11}
20 км ясно +14.9 +11.5 80 +15 +15 тепло 1016.4 990.5
00 19.09 З 2
{11}
20 км 9/0
[Ac trans Ci sp]
+15.7 +11.7 77 +16 +16 тепло 1018.0 992.2
03 19.09 СЗ 1 20 км 10/4 1000 м
[Sc Ac As]
+14.9 +8.3 65 +16 +16 тепло 1019.7 993.7 +14.7
06 19.09 С 1 10 км слаб. ливневой дождь 10/8 1000 м
[Cb cap Ac und]
+14.7 +7.9 64 +15 +16 по сезону 1021.0 995.0 +14.3
09 19.09 СВ 1 20 км {ливн. осадки} 10/5 1000 м
[Sc Ac und]
+17.0 +4.6 44 +18 +20 по сезону 1020.7 994.9
12 19.09 ЮВ 1 20 км {ливн. осадки} 9/0
[Ac trans Ci sp]
+19.1 +5.1 40 +21 +25 комфорт 1020.1 994.5
15 19.09 З 1 10 км слаб. ливневой дождь 10/8 1000 м
[Cb cap Ac und]
+15.4 +9.3 67 +16 +16 по сезону 1020.7 994.8 +20.4 0.1
18 19.09 штиль 0 20 км {ливн. осадки} 10/5 1000 м
[Sc Ac trans Ci sp]
+11.4 +9.3 87 +11 +11 прохладно 1020.9 994.6
21 19.09 штиль 0 20 км 10/6 1000 м
[Sc Ac und]
+13.0 +9.9 81 +13 +13 по сезону 1020.8 994.6
00 20.09 ЮВ 1 20 км 10/8 1000 м
[Sc Ac und]
+11.7 +8.3 80 +12 +12 по сезону 1020.2 993.9
03 20.09 СВ 1 20 км 10/10 1000 м
[Sc]
+10.8 +8.5 86 +10 +10 прохладно 1019.5 993.2 +10.4 0.1
06 20.09 СВ 2 20 км 9/6 1000 м
[Sc Ac trans]
+13.4 +6.4 63 +13 +14 прохладно 1018.4 992.3

 

Местоположение метеостанции Майкоп (Адыгея, Россия): широта 44.62 долгота 40.08 высота над уровнем моря 216 м.

В архиве по умолчанию представлена погода в Майкопе за последнюю неделю. Архивные данные за месяц целиком и за предыдущие месяцы, начиная с января 2011 года, Вы можете получить, выбрав интересующий диапазон дат из раскрывающегося списка и нажав кнопку "Ввод!".


*Определитесь, кто Вы:
робот инопланетянин человек

Внимание! Время в таблицах - всемирное. Для получения местного времени необходимо прибавить поправку, которая равна 3 ч.

Смотрите также архив погоды в соседних городах и на ближайших метеорологических станциях:

Погода в Шунтуке (Адыгея, Россия) (17 км)
Погода в Белореченске (Краснодарский край, Россия) (20 км)
Погода в Дондуковской (Адыгея, Россия) (34 км)
Погода в Лабинске (Краснодарский край, Россия) (53 км)
Погода в Даховской (Адыгея, Россия) (53 км)
Погода в Гузерипле (Адыгея, Россия) (69 км)
Погода в Усть-Лабинске (Краснодарский край, Россия) (73 км)
Погода в Горном (Краснодарский край, Россия) (75 км)
Погода в Горячем Ключе (Краснодарский край, Россия) (78 км)
Погода в Псебае (Краснодарский край, Россия) (78 км)

Пояснения к столбцам:

Ветер - указаны скорость ветра в м/с - средняя за 10 мин, порывы в срок и между сроками (в фигурных скобках) и направление, откуда дует ветер: С - северный, СВ - северо-восточный, В - восточный, ЮВ - юго-восточный, Ю - южный, ЮЗ - юго-западный, З - западный, СЗ - северо-западный.
Видимость - горизонтальная дальность видимости в метрах или километрах. При видимости от 1 до 10 км при отсутствии осадков обычно наблюдается дымка, при ухудшении видимости до 1 км и менее - туман. В сухую погоду видимость может ухудшаться дымом, пылью или мглою.
Явления - указаны атмосферные явления, наблюдавшиеся в срок или в последний час перед сроком; фигурными скобками обозначены явления, наблюдавшиеся между сроками (за 1-3 часа до срока); квадратными скобками обозначены град или гололедные отложения с указанием их диаметра в мм.
Облачность - указаны через наклонную черту общая и нижняя облачность в баллах и высота нижней границы облаков в метрах; квадратными скобками обозначены формы облаков: Ci - перистые, Cs - перисто-слоистые, Cc - перисто-кучевые, Ac - высококучевые, As - высокослоистые, Sc - слоисто-кучевые, Ns - слоисто-дождевые, Cu - кучевые, Cb - кучево-дождевые. Подробнее классификацию облаков см. в Атласе облаков (PDF).
T - Температура воздуха - температура, измеренная на высоте 2 м над землей.
Td - Температура точки росы - температура, при понижении до которой содержащийся в воздухе водяной пар достигнет насыщения.
f - Относительная влажность воздуха - влажноcть воздуха, измеренная на высоте 2 м над землей.
Te - Эффективная температура - температура, которую ощущает одетый по сезону человек в тени. Характеристика душности погоды. При расчете учитывается влияние влажности воздуха и скорости ветра на теплоощущения человека.
Tes - Эффективная температура на солнце - температура, которую ощущает человек, с поправкой на солнечный нагрев. Характеристика знойности погоды. Зависит от высоты солнца над горизонтом, облачности и скорости ветра. Ночью, в пасмурную погоду, а также при ветре 12 м/с и более поправка равна нулю.
P - Атмосферное давление - приведенное к уровню моря атмосферное давление.
Po - Атмосферное давление - измеренное на уровне метеостанции атмосферное давление.
Tmin - Минимальная температура - минимум температуры воздуха на высоте 2 м над землей.
Tmax - Максимальная температура - максимум температуры воздуха на высоте 2 м над землей.
R - Количество осадков - Количество выпавших осадков за период времени, мм. При наведении курсора мыши на число - период времени, за который выпало указанное количество осадков.
R24 - Количество осадков - Количество выпавших осадков за 24 часа, мм.
S - Снежный покров - Высота снежного покрова, см. При наведении курсора мыши на число - состояние снежного покрова и степень покрытия местности в баллах.